Weather in Somerton

United Kingdom     51°03′15″N   2°44′04″W
temp.,
°C
wind,
m/s
gust,
m/s
humid.,
%
clouds,
%
prec.,
mm/h
press.,
hPa
HPBL,
m
25 july, sun
sun2501:00+14n2498100 1.4 100796
04:00+13n379897 0.7 1007241
07:00+15n3796100 0.7 1008381
10:00+16nne4689100 0.0 1009541
13:00+20nne4573100 0.1 10091064
16:00+20nnw4569100 0.1 1009856
19:00+19nw457769 0.1 1009391
22:00+15wnw22927 0.0 101014
26 july, mon
mon2601:00+14w229221 0.0 101012
04:00+13wnw11917 0.0 101011
07:00+15wsw01860 0.0 101138
10:00+19wnw346524 0.0 1011600
13:00+23wnw4562100 0.2 10111116
16:00+22w4574100 3.4 10101010
19:00+20w2586100 5.5 1010150
22:00+17wsw2291100 0.3 101019
27 july, tue
tue2701:00+14wsw2293100 0.4 101020
04:00+15ssw2394100 0.3 100969
07:00+15ssw019276 0.3 100973
10:00+18w1183100 0.4 1008412
13:00+20nw3375100 3.4 1008960
16:00+20wnw577369 1.5 1008998
19:00+17wnw6108449 2.0 1009705
22:00+14wnw511904 0.0 1010450
28 july, wed
wed2801:00+12wsw35950 0.0 101191
04:00+11wsw36955 0.0 1011105
07:00+13sw269059 0.0 1011185
10:00+17wsw467076 0.0 10111033
13:00+18sw687256 1.3 10111141
16:00+19sw687393 1.7 10101231
19:00+16sw7118590 3.3 1009726
22:00+15sw61390100 0.6 1009617
29 july, thu
thu2901:00+15sw61392100 1.2 1008714
04:00+15ssw8159492 1.8 1005788
07:00+13wnw13958 5.3 1006136
10:00+16w697096 0.0 10071209
13:00+18w8116579 0.8 10081718
16:00+19w811525 0.3 10082113
19:00+16w610715 0.4 10091140
22:00+12sw498656 0.0 1010210